Flag for U.S.A. Weather past 2 weeks in Columbus, Georgia, U.S.A.

Now
48 °F

Fog.


Feels Like: 45 °F
Forecast: 52 / 65 °F
Wind: 8 mph from East

Location: Columbus Metropolitan Airport

Current Time: Dec 23, 2014 at 12:36:52 AM

Latest Report: Dec 23, 2014 at 12:02 AM


Visibility: 3 mi

Pressure: 29.89 "Hg

Humidity: 100%

Dew point: 48 °F

Location of ColumbusLocation

Historic Weather in Columbus — Graph

°F

Columbus temperature yesterday

Maximum temperature yesterday: 49 °F (at 12:51 AM)
Minimum temperature yesterday: 47 °F (at 5:51 AM)
Average temperature yesterday: 48 °F

Past Weeks' High & Low Weather Summary

 TemperatureHumidityPressure
High65 °F (Dec 13, 2:51 PM)100% (Dec 21, 10:04 PM)30.33 "Hg (Dec 21, 10:04 PM)
Low32 °F (Dec 11, 5:51 AM)15% (Dec 12, 3:51 PM)29.87 "Hg (Dec 22, 4:51 PM)
Average48 °F66%30.14 "Hg
* Reported Dec 7 10:51 PM — Dec 22 10:51 PM, Columbus, Weather by CustomWeather, © 2014

Note: Actual official high and low records may vary slightly from our data, if they occured in-between our weather recording intervals... More about our weather records

Advertising

Columbus weather history for previous 24 hours

 ConditionsComfort  
Time TempWeatherWind HumidityBarometerVisibility
10:51 PM
Dec 22
48 °FFog.7 mph100%29.90 "Hg4 mi
9:51 PM48 °FFog.9 mph100%29.88 "Hg2 mi
8:51 PM48 °FFog.10 mph100%29.89 "Hg4 mi
7:51 PM48 °FFog.9 mph100%29.88 "Hg3 mi
6:51 PM49 °FLow clouds.8 mph97%29.89 "Hg7 mi
5:51 PM49 °FFog.7 mph97%29.88 "Hg3 mi
4:51 PM49 °FFog.8 mph97%29.87 "Hg6 mi
3:51 PM49 °FLight rain. Fog.9 mph97%29.88 "Hg5 mi
2:51 PM49 °FFog.13 mph97%29.87 "Hg5 mi
1:51 PM49 °FLight rain. Fog.7 mph97%29.90 "Hg4 mi
12:51 PM49 °FFog.10 mph93%29.92 "Hg1 mi
11:51 AM49 °FFog.12 mph97%29.94 "Hg3 mi
10:51 AM49 °FFog.8 mph93%29.98 "Hg5 mi
9:51 AM48 °FFog.6 mph96%30.01 "Hg5 mi
8:51 AM48 °FFog.6 mph96%30.00 "Hg4 mi
7:51 AM48 °FFog.7 mph96%30.01 "Hg5 mi
6:51 AM47 °FFog.7 mph100%30.01 "Hg4 mi
5:51 AM47 °FFog.8 mph100%29.99 "Hg3 mi
4:51 AM48 °FLow clouds.7 mph96%30.00 "Hg10 mi
3:51 AM48 °FFog.8 mph93%30.01 "Hg5 mi
2:51 AM48 °FFog.7 mph96%30.02 "Hg6 mi
1:51 AM48 °FFog.8 mph96%30.04 "Hg3 mi
12:51 AM49 °FLow clouds.9 mph93%30.03 "Hg10 mi
Weather by CustomWeather, © 2014

See weather overviewHow to use our weather pages